Weather History for Torrington, WY

Change the Weather History Date:

Tuesday, March 19, 2013

  Actual Average Record
Temperature  
Mean Temperature 31 °F 39 °F  
Max Temperature 45 °F 52 °F 80 °F (2004)
Min Temperature 16 °F 25 °F 13 °F (2002)
Degree Days  
Heating Degree Days 34 26  
Month to date heating degree days 498 544  
Since 1 July heating degree days 5111 5388  
Cooling Degree Days 0 0  
Month to date cooling degree days 0 0  
Year to date cooling degree days 0 0  
Moisture  
Dew Point 20 °F    
Average Humidity 59    
Maximum Humidity 92    
Minimum Humidity 25    
Precipitation  
Precipitation T in 0.02 in 0.27 in (2006)
Month to date precipitation 0.10 0.34  
Year to date precipitation 0.49 0.94  
Sea Level Pressure  
Sea Level Pressure 30.14 in    
Wind  
Wind Speed 13 mph (NW)    
Max Wind Speed 37 mph    
Max Gust Speed 51 mph    
Visibility 9 miles    
Events Snow    
T = Trace of Precipitation, MM = Missing Value Source: NWS Daily Summary

Daily Weather History Graph

Daily Weather History Graph

Search for Another Location

Airport:

Trip Planner

Search our weather history database for the weather conditions in past years. The results will help you decide how hot, cold, wet, or windy it might be!

Date:

Astronomy

Mar. 19, 2013 Rise Set
Actual Time 7:01 AM MDT 7:08 PM MDT
Civil Twilight 6:33 AM MDT 7:35 PM MDT
Nautical Twilight 6:00 AM MDT 8:08 PM MDT
Astronomical Twilight 5:27 AM MDT 8:41 PM MDT
Moon 11:47 AM MDT (3/19) 2:02 AM MDT (3/19)
Length of Visible Light 13h 02m
Length of Day
12h 06m
Waxing Crescent, 50% of the Moon is Illuminated
Mar 19
Waxing Crescent
Mar 27
Full
Apr 2
Last Quarter
Apr 10
New
Apr 18
First Quarter

Hourly Weather History & Observations

Time (MDT) Temp. Windchill Dew Point Humidity Pressure Visibility Wind Dir Wind Speed Gust Speed Precip Events Conditions
12:53 AM 30.9 °F 26.2 °F 15.1 °F 52% 29.96 in 10.0 mi ENE 4.6 mph - N/A   Overcast
1:53 AM 33.1 °F 27.7 °F 19.9 °F 59% 29.98 in 10.0 mi North 5.8 mph - N/A   Overcast
2:10 AM 32.0 °F 23.6 °F 21.2 °F 64% 29.94 in 2.5 mi West 10.4 mph - 0.00 in Snow Light Snow
2:17 AM 30.2 °F - 21.2 °F 69% 29.95 in 1.0 mi Calm Calm - 0.00 in Snow Light Snow
2:25 AM 30.2 °F 24.3 °F 23.0 °F 75% 29.96 in 3.0 mi West 5.8 mph - 0.00 in Snow Light Snow
2:53 AM 28.9 °F 22.8 °F 25.0 °F 85% 30.01 in 8.0 mi WSW 5.8 mph - 0.00 in Snow Light Snow
3:53 AM 30.0 °F 24.1 °F 25.0 °F 82% 30.01 in 10.0 mi West 5.8 mph - 0.00 in   Overcast
4:53 AM 30.0 °F 21.1 °F 24.1 °F 79% 30.05 in 10.0 mi WNW 10.4 mph - N/A   Overcast
5:10 AM 28.4 °F 18.5 °F 26.6 °F 93% 30.02 in 1.8 mi WNW 11.5 mph - 0.00 in Snow Light Snow
5:32 AM 28.4 °F 19.7 °F 26.6 °F 93% 30.03 in 3.0 mi West 9.2 mph - 0.00 in Snow Light Snow
5:46 AM 28.4 °F 22.2 °F 26.6 °F 93% 30.03 in 7.0 mi West 5.8 mph - 0.00 in Snow Light Snow
5:53 AM 28.9 °F 21.1 °F 26.1 °F 89% 30.07 in 9.0 mi WSW 8.1 mph - 0.00 in   Overcast
6:53 AM 28.0 °F 20.0 °F 25.0 °F 88% 30.11 in 10.0 mi WNW 8.1 mph - N/A   Overcast
7:53 AM 28.0 °F 21.7 °F 23.0 °F 81% 30.14 in 10.0 mi WNW 5.8 mph - N/A   Clear
8:53 AM 32.0 °F 26.4 °F 24.1 °F 73% 30.16 in 10.0 mi WNW 5.8 mph - N/A   Clear
9:53 AM 35.1 °F 27.9 °F 25.0 °F 67% 30.18 in 10.0 mi SW 9.2 mph - N/A   Clear
10:53 AM 39.9 °F 32.1 °F 21.0 °F 47% 30.17 in 10.0 mi WNW 13.8 mph - N/A   Mostly Cloudy
11:53 AM 39.0 °F 30.6 °F 23.0 °F 53% 30.18 in 9.0 mi NNW 15.0 mph 25.3 mph N/A   Overcast
12:00 PM 37.4 °F 29.3 °F 19.4 °F 48% 30.12 in 10.0 mi NNW 12.7 mph 25.3 mph N/A   Overcast
12:53 PM 44.1 °F 35.4 °F 10.0 °F 25% 30.14 in 10.0 mi WNW 21.9 mph 33.4 mph 0.00 in   Scattered Clouds
1:34 PM 41.0 °F 31.9 °F 19.4 °F 42% 30.11 in 10.0 mi NNW 19.6 mph 33.4 mph N/A   Clear
1:53 PM 39.9 °F 29.5 °F 14.0 °F 35% 30.15 in 10.0 mi NNW 24.2 mph 34.5 mph N/A   Clear
2:53 PM 41.0 °F 31.9 °F 12.0 °F 31% 30.17 in 10.0 mi NNW 19.6 mph 38.0 mph N/A   Partly Cloudy
3:27 PM 41.0 °F 30.9 °F 19.4 °F 42% 30.12 in 10.0 mi North 24.2 mph 32.2 mph N/A   Scattered Clouds
3:53 PM 39.9 °F 28.8 °F 19.0 °F 43% 30.18 in 10.0 mi North 27.6 mph 34.5 mph N/A   Mostly Cloudy
4:53 PM 36.0 °F 22.4 °F 21.0 °F 55% 30.24 in 10.0 mi North 33.4 mph 42.6 mph N/A   Clear
5:53 PM 35.1 °F 23.0 °F 19.0 °F 52% 30.26 in 10.0 mi NNE 24.2 mph 36.8 mph N/A   Clear
6:53 PM 32.0 °F 20.8 °F 18.0 °F 56% 30.28 in 10.0 mi NNE 17.3 mph - N/A   Clear
7:53 PM 30.0 °F 18.3 °F 15.1 °F 54% 30.33 in 10.0 mi North 17.3 mph - N/A   Clear
8:53 PM 28.9 °F 21.9 °F 12.9 °F 51% 30.37 in 10.0 mi NNW 6.9 mph - N/A   Scattered Clouds
9:53 PM 27.0 °F 21.6 °F 12.9 °F 56% 30.40 in 10.0 mi North 4.6 mph - N/A   Overcast
10:53 PM 24.1 °F 19.7 °F 12.0 °F 60% 30.40 in 10.0 mi North 3.5 mph - N/A   Clear
11:53 PM 17.1 °F 8.7 °F 10.9 °F 77% 30.43 in 10.0 mi NE 5.8 mph - N/A   Clear